Yankton, SD

7:54 PM CST on February 11, 2016 (GMT -0600)
Gurney Municipal

Weather History for KYKN - April, 2014

Change the Weather History Date:

Saturday, April 12, 2014

  Actual Average Record
Temperature  
Mean Temperature 62 °F -  
Max Temperature 77 °F 59 °F 90 °F (1985)
Min Temperature 48 °F 34 °F 14 °F (1957)
Degree Days  
Heating Degree Days 2    
Growing Degree Days 12 (Base 50)    
Moisture  
Dew Point 39 °F    
Average Humidity 43    
Maximum Humidity 76    
Minimum Humidity 25    
Precipitation  
Precipitation 0.00 in - - ()
Sea Level Pressure  
Sea Level Pressure 29.63 in    
Wind  
Wind Speed 10 mph (North)    
Max Wind Speed 22 mph    
Max Gust Speed 26 mph    
Visibility 9 miles    
Events Thunderstorm    
Averages and records for this station are not official NWS values.
T = Trace of Precipitation, MM = Missing Value Source: NWS Daily Summary

Daily Weather History Graph

Daily Weather History Graph

Search for Another Location

Airport or City:

Trip Planner

Search our weather history database for the weather conditions in past years. The results will help you decide how hot, cold, wet, or windy it might be!

Date:

Astronomy

Apr. 12, 2014 Rise Set
Actual Time 6:52 AM CDT 8:08 PM CDT
Civil Twilight 6:23 AM CDT 8:37 PM CDT
Nautical Twilight 5:48 AM CDT 9:13 PM CDT
Astronomical Twilight 5:11 AM CDT 9:50 PM CDT
Moon 5:45 PM CDT 5:24 AM CDT
Length of Visible Light 14h 14m
Length of Day
13h 15m
Waxing Gibbous, 93% of the Moon is Illuminated
Apr 12
Waxing Gibbous
Apr 15
Full
Apr 22
Last Quarter
Apr 29
New
May 6
First Quarter

Hourly Weather History & Observations

Time (CDT) Temp. Dew Point Humidity Pressure Visibility Wind Dir Wind Speed Gust Speed Precip Events Conditions
12:15 AM 62.6 °F 33.8 °F 34% 29.71 in 10.0 mi SSE 11.5 mph - N/A   Mostly Cloudy
12:35 AM 62.6 °F 33.8 °F 34% 29.70 in 10.0 mi South 11.5 mph - N/A   Scattered Clouds
12:55 AM 62.6 °F 33.8 °F 34% 29.70 in 8.0 mi South 10.4 mph - N/A   Scattered Clouds
1:15 AM 62.6 °F 33.8 °F 34% 29.68 in 7.0 mi SSE 11.5 mph 20.7 mph N/A   Mostly Cloudy
1:35 AM 62.6 °F 33.8 °F 34% 29.67 in 7.0 mi ESE 8.1 mph - N/A Thunderstorm Mostly Cloudy
1:55 AM 62.6 °F 33.8 °F 34% 29.66 in 7.0 mi East 8.1 mph - N/A   Overcast
2:15 AM 60.8 °F 33.8 °F 36% 29.65 in 8.0 mi ESE 11.5 mph - N/A   Scattered Clouds
2:35 AM 59.0 °F 33.8 °F 39% 29.64 in 10.0 mi SE 9.2 mph - N/A   Clear
2:55 AM 57.2 °F 35.6 °F 44% 29.63 in 10.0 mi East 9.2 mph - N/A   Clear
3:15 AM 57.2 °F 35.6 °F 44% 29.61 in 10.0 mi East 9.2 mph - N/A   Clear
3:35 AM 55.4 °F 35.6 °F 47% 29.60 in 10.0 mi ESE 8.1 mph - N/A   Clear
3:55 AM 57.2 °F 37.4 °F 48% 29.60 in 9.0 mi ENE 6.9 mph - N/A   Clear
4:15 AM 55.4 °F 37.4 °F 51% 29.61 in 10.0 mi ENE 5.8 mph - N/A   Clear
4:35 AM 55.4 °F 37.4 °F 51% 29.63 in 10.0 mi North 6.9 mph - N/A   Clear
4:55 AM 59.0 °F 39.2 °F 48% 29.62 in 8.0 mi SSE 6.9 mph - N/A   Clear
5:15 AM 57.2 °F 39.2 °F 51% 29.61 in 8.0 mi SSE 9.2 mph - N/A   Clear
5:35 AM 55.4 °F 39.2 °F 54% 29.60 in 8.0 mi SE 9.2 mph - N/A   Clear
5:55 AM 53.6 °F 39.2 °F 58% 29.60 in 8.0 mi East 6.9 mph - N/A   Clear
6:15 AM 53.6 °F 41.0 °F 62% 29.59 in 8.0 mi SSE 9.2 mph - N/A   Clear
6:35 AM 53.6 °F 41.0 °F 62% 29.59 in 9.0 mi ESE 4.6 mph - N/A   Clear
6:55 AM 53.6 °F 44.6 °F 72% 29.59 in 7.0 mi SE 5.8 mph - N/A   Clear
7:15 AM 48.2 °F 41.0 °F 76% 29.59 in 7.0 mi East 3.5 mph - N/A   Clear
7:35 AM 50.0 °F 41.0 °F 71% 29.59 in 5.0 mi Calm Calm - N/A   Clear
7:55 AM 50.0 °F 42.8 °F 76% 29.60 in 6.0 mi North 3.5 mph - N/A   Clear
8:15 AM 53.6 °F 44.6 °F 72% 29.61 in 3.0 mi Calm Calm - N/A   Clear
8:35 AM 57.2 °F 44.6 °F 63% 29.61 in 9.0 mi NNW 3.5 mph - N/A   Clear
8:55 AM 60.8 °F 46.4 °F 59% 29.61 in 10.0 mi West 6.9 mph - N/A   Clear
9:15 AM 62.6 °F 42.8 °F 48% 29.61 in 10.0 mi West 9.2 mph - N/A   Clear
9:35 AM 62.6 °F 42.8 °F 48% 29.61 in 10.0 mi West 11.5 mph - N/A   Clear
9:55 AM 64.4 °F 41.0 °F 42% 29.61 in 10.0 mi WNW 12.7 mph - N/A   Clear
10:15 AM 64.4 °F 41.0 °F 42% 29.62 in 10.0 mi WNW 10.4 mph - N/A   Clear
10:35 AM 66.2 °F 39.2 °F 37% 29.63 in 10.0 mi WNW 12.7 mph - N/A   Clear
10:55 AM 66.2 °F 39.2 °F 37% 29.63 in 10.0 mi WNW 10.4 mph 17.3 mph N/A   Clear
11:15 AM 68.0 °F 39.2 °F 35% 29.64 in 10.0 mi NNW 11.5 mph 16.1 mph N/A   Clear
11:35 AM 68.0 °F 39.2 °F 35% 29.64 in 10.0 mi NW 13.8 mph - N/A   Clear
11:55 AM 69.8 °F 39.2 °F 33% 29.64 in 10.0 mi NW 13.8 mph - N/A   Clear
12:15 PM 68.0 °F 39.2 °F 35% 29.65 in 10.0 mi NW 15.0 mph - N/A   Clear
12:35 PM 69.8 °F 41.0 °F 35% 29.64 in 10.0 mi NNW 11.5 mph 16.1 mph N/A   Clear
12:55 PM 71.6 °F 42.8 °F 35% 29.64 in 10.0 mi NW 11.5 mph 16.1 mph N/A   Clear
1:15 PM 73.4 °F 42.8 °F 33% 29.63 in 10.0 mi NNW 10.4 mph - N/A   Clear
1:35 PM 73.4 °F 42.8 °F 33% 29.62 in 10.0 mi NNW 11.5 mph 18.4 mph N/A   Clear
1:55 PM 75.2 °F 42.8 °F 31% 29.61 in 10.0 mi North 10.4 mph 17.3 mph N/A   Clear
2:15 PM 75.2 °F 42.8 °F 31% 29.60 in 10.0 mi North 12.7 mph 17.3 mph N/A   Clear
2:35 PM 75.2 °F 42.8 °F 31% 29.60 in 10.0 mi NNW 16.1 mph 20.7 mph N/A   Clear
2:55 PM 75.2 °F 41.0 °F 29% 29.60 in 10.0 mi NNE 13.8 mph - N/A   Clear
3:15 PM 77.0 °F 41.0 °F 28% 29.59 in 10.0 mi North 16.1 mph 20.7 mph N/A   Clear
3:35 PM 77.0 °F 41.0 °F 28% 29.59 in 10.0 mi North 12.7 mph 23.0 mph N/A   Clear
3:55 PM 75.2 °F 41.0 °F 29% 29.59 in 10.0 mi North 18.4 mph 24.2 mph N/A   Clear
4:15 PM 75.2 °F 42.8 °F 31% 29.59 in 10.0 mi NNW 18.4 mph - N/A   Clear
4:35 PM 75.2 °F 41.0 °F 29% 29.60 in 10.0 mi North 13.8 mph - N/A   Clear
4:55 PM 75.2 °F 41.0 °F 29% 29.60 in 10.0 mi North 13.8 mph - N/A   Clear
5:15 PM 75.2 °F 39.2 °F 27% 29.61 in 10.0 mi North 17.3 mph - N/A   Clear
5:35 PM 75.2 °F 39.2 °F 27% 29.61 in 10.0 mi North 13.8 mph - N/A   Clear
5:55 PM 73.4 °F 39.2 °F 29% 29.61 in 10.0 mi North 13.8 mph 20.7 mph N/A   Clear
6:15 PM 73.4 °F 35.6 °F 25% 29.62 in 10.0 mi North 18.4 mph - N/A   Clear
6:35 PM 73.4 °F 37.4 °F 27% 29.62 in 10.0 mi North 21.9 mph 26.5 mph N/A   Clear
6:55 PM 71.6 °F 33.8 °F 25% 29.63 in 10.0 mi North 16.1 mph 23.0 mph N/A   Clear
7:15 PM 71.6 °F 35.6 °F 27% 29.64 in 10.0 mi North 15.0 mph 20.7 mph N/A   Clear
7:35 PM 69.8 °F 37.4 °F 31% 29.64 in 10.0 mi NNE 15.0 mph - N/A   Clear
7:55 PM 68.0 °F 37.4 °F 33% 29.65 in 10.0 mi NNE 12.7 mph - N/A   Clear
8:15 PM 66.2 °F 37.4 °F 35% 29.65 in 10.0 mi North 11.5 mph 17.3 mph N/A   Clear
8:35 PM 64.4 °F 39.2 °F 40% 29.66 in 10.0 mi North 11.5 mph - N/A   Clear
8:55 PM 62.6 °F 39.2 °F 42% 29.66 in 10.0 mi North 11.5 mph - N/A   Clear
9:15 PM 60.8 °F 37.4 °F 42% 29.67 in 10.0 mi NNW 15.0 mph - N/A   Clear
9:35 PM 59.0 °F 37.4 °F 45% 29.67 in 10.0 mi North 13.8 mph - N/A   Clear
9:55 PM 57.2 °F 39.2 °F 51% 29.67 in 10.0 mi North 12.7 mph - N/A   Clear
10:15 PM 57.2 °F 41.0 °F 55% 29.68 in 10.0 mi North 13.8 mph - N/A   Clear
10:35 PM 57.2 °F 41.0 °F 55% 29.68 in 10.0 mi North 10.4 mph - N/A   Clear
10:55 PM 55.4 °F 41.0 °F 58% 29.68 in 10.0 mi NNW 11.5 mph - N/A   Clear
11:15 PM 53.6 °F 41.0 °F 62% 29.69 in 10.0 mi NNW 10.4 mph - N/A   Clear
11:35 PM 51.8 °F 39.2 °F 62% 29.71 in 10.0 mi NNW 9.2 mph - N/A   Clear
11:55 PM 51.8 °F 39.2 °F 62% 29.72 in 10.0 mi NNW 15.0 mph 18.4 mph N/A   Clear